Weather History for McComb, MS

Change the Weather History Date:

Tuesday, February 12, 2013

  Actual Average Record
Temperature  
Mean Temperature 55 °F -  
Max Temperature 59 °F 60 °F 80 °F (1962)
Min Temperature 51 °F 37 °F 16 °F (1981)
Degree Days  
Heating Degree Days 10    
Growing Degree Days 5 (Base 50)    
Moisture  
Dew Point 54 °F    
Average Humidity 98    
Maximum Humidity 100    
Minimum Humidity 90    
Precipitation  
Precipitation 0.22 in - - ()
Sea Level Pressure  
Sea Level Pressure 29.89 in    
Wind  
Wind Speed 6 mph (ENE)    
Max Wind Speed 13 mph    
Max Gust Speed 26 mph    
Visibility 4 miles    
Events Rain , Thunderstorm    
Averages and records for this station are not official NWS values.
T = Trace of Precipitation, MM = Missing Value Source: NWS Daily Summary

Daily Weather History Graph

Daily Weather History Graph

Search for Another Location

Airport:

Trip Planner

Search our weather history database for the weather conditions in past years. The results will help you decide how hot, cold, wet, or windy it might be!

Date:

Astronomy

Feb. 12, 2013 Rise Set
Actual Time 6:45 AM CST 5:47 PM CST
Civil Twilight 6:20 AM CST 6:11 PM CST
Nautical Twilight 5:52 AM CST 6:40 PM CST
Astronomical Twilight 5:23 AM CST 7:08 PM CST
Moon 7:56 AM CST (2/12) 8:31 PM CST (2/12)
Length of Visible Light 11h 51m
Length of Day
11h 01m
Waxing Crescent, 7% of the Moon is Illuminated
Feb 12
Waxing Crescent
Feb 17
First Quarter
Feb 25
Full
Mar 4
Last Quarter
Mar 11
New

Hourly Weather History & Observations

Time (CST) Temp. Dew Point Humidity Pressure Visibility Wind Dir Wind Speed Gust Speed Precip Events Conditions
12:05 AM 53.6 °F 51.8 °F 94% 30.10 in 8.0 mi NNE 5.8 mph - 0.01 in Rain , Thunderstorm Light Rain
12:17 AM 51.8 °F 51.8 °F 100% 30.07 in 2.5 mi ENE 5.8 mph - 0.10 in Rain , Thunderstorm Heavy Thunderstorms and Rain
12:23 AM 51.8 °F 51.8 °F 100% 30.08 in 3.0 mi Variable 5.8 mph - 0.11 in Rain , Thunderstorm Light Thunderstorms and Rain
12:28 AM 51.8 °F 51.8 °F 100% 30.07 in 6.0 mi NE 5.8 mph - 0.11 in Rain Light Rain
12:37 AM 51.8 °F 51.8 °F 100% 30.07 in 10.0 mi NE 5.8 mph - 0.11 in   Overcast
12:53 AM 52.0 °F 51.1 °F 97% 30.07 in 10.0 mi NNE 4.6 mph - 0.11 in   Overcast
1:53 AM 52.0 °F 51.1 °F 97% 30.04 in 10.0 mi NE 5.8 mph - N/A   Overcast
2:53 AM 53.1 °F 51.1 °F 93% 30.03 in 10.0 mi ENE 8.1 mph - N/A   Overcast
3:53 AM 53.1 °F 52.0 °F 96% 30.01 in 10.0 mi Variable 6.9 mph - N/A   Overcast
4:53 AM 53.1 °F 52.0 °F 96% 29.97 in 10.0 mi ENE 5.8 mph - 0.03 in Rain , Thunderstorm Light Rain
5:33 AM 53.6 °F 51.8 °F 94% 29.95 in 2.5 mi ENE 9.2 mph - 0.21 in Rain , Thunderstorm Heavy Thunderstorms and Rain
5:40 AM 53.6 °F 51.8 °F 94% 29.96 in 3.0 mi ENE 8.1 mph - 0.24 in Rain , Thunderstorm Thunderstorms and Rain
6:17 AM 53.6 °F 51.8 °F 94% 29.95 in 3.0 mi ESE 8.1 mph - 0.03 in Rain Light Rain
6:45 AM 53.6 °F 51.8 °F 94% 29.94 in 5.0 mi ENE 10.4 mph - 0.03 in   Overcast
6:53 AM 53.1 °F 52.0 °F 96% 29.94 in 3.0 mi East 6.9 mph - 0.03 in Rain Light Rain
7:02 AM 53.6 °F 51.8 °F 94% 29.94 in 2.5 mi East 5.8 mph - 0.01 in Rain Light Rain
7:18 AM 53.6 °F 51.8 °F 94% 29.94 in 2.5 mi East 5.8 mph - 0.01 in   Overcast
7:26 AM 53.6 °F 53.6 °F 100% 29.95 in 4.0 mi Variable 3.5 mph - 0.01 in   Overcast
7:53 AM 53.1 °F 53.1 °F 100% 29.94 in 3.0 mi East 6.9 mph - 0.01 in   Overcast
8:26 AM 53.6 °F 53.6 °F 100% 29.96 in 2.0 mi East 5.8 mph - N/A   Overcast
8:53 AM 53.1 °F 53.1 °F 100% 29.95 in 2.5 mi East 4.6 mph - 0.00 in   Overcast
9:10 AM 53.6 °F 53.6 °F 100% 29.95 in 1.8 mi East 4.6 mph - N/A   Overcast
9:27 AM 53.6 °F 53.6 °F 100% 29.94 in 2.5 mi East 9.2 mph - N/A   Overcast
9:35 AM 53.6 °F 53.6 °F 100% 29.94 in 4.0 mi East 5.8 mph - N/A   Overcast
9:49 AM 53.6 °F 53.6 °F 100% 29.93 in 2.5 mi East 8.1 mph - N/A   Overcast
9:53 AM 54.0 °F 53.1 °F 97% 29.92 in 2.5 mi East 9.2 mph - N/A   Overcast
10:03 AM 53.6 °F 53.6 °F 100% 29.92 in 3.0 mi East 6.9 mph - N/A   Overcast
10:12 AM 53.6 °F 53.6 °F 100% 29.93 in 2.5 mi Variable 3.5 mph - N/A   Overcast
10:38 AM 53.6 °F 53.6 °F 100% 29.91 in 1.8 mi East 9.2 mph - N/A   Overcast
10:53 AM 54.0 °F 53.1 °F 97% 29.91 in 2.0 mi Variable 5.8 mph - 0.01 in   Overcast
11:15 AM 53.6 °F 53.6 °F 100% 29.90 in 1.5 mi ESE 4.6 mph - N/A   Overcast
11:53 AM 55.0 °F 54.0 °F 96% 29.87 in 1.5 mi Variable 4.6 mph - N/A   Overcast
12:53 PM 55.9 °F 55.9 °F 100% 29.84 in 1.0 mi ESE 5.8 mph - 0.00 in   Overcast
1:53 PM 57.0 °F 55.9 °F 96% 29.79 in 1.5 mi Variable 6.9 mph - 0.01 in   Overcast
2:53 PM 57.0 °F 57.0 °F 100% 29.77 in 1.0 mi Calm Calm - 0.00 in   Overcast
3:15 PM 57.2 °F 57.2 °F 100% 29.78 in 1.0 mi North 3.5 mph - N/A Thunderstorm Overcast
3:30 PM 57.2 °F 57.2 °F 100% 29.78 in 1.2 mi North 3.5 mph - N/A   Overcast
3:53 PM 57.0 °F 57.0 °F 100% 29.76 in 2.0 mi Calm Calm - N/A   Overcast
4:30 PM 57.2 °F 57.2 °F 100% 29.77 in 1.8 mi Calm Calm - N/A   Overcast
4:39 PM 57.2 °F 57.2 °F 100% 29.77 in 2.0 mi Calm Calm - N/A   Overcast
4:48 PM 57.2 °F 57.2 °F 100% 29.76 in 1.8 mi Calm Calm - N/A   Overcast
4:53 PM 57.0 °F 57.0 °F 100% 29.75 in 1.5 mi East 3.5 mph - N/A   Overcast
5:38 PM 57.2 °F 57.2 °F 100% 29.76 in 0.8 mi Calm Calm - N/A   Mist
5:46 PM 57.2 °F 57.2 °F 100% 29.76 in 1.2 mi Calm Calm - N/A   Overcast
5:53 PM 57.0 °F 57.0 °F 100% 29.74 in 1.5 mi Calm Calm - N/A   Overcast
6:45 PM 57.2 °F 57.2 °F 100% 29.76 in 0.8 mi Calm Calm - N/A   Mist
6:53 PM 57.9 °F 57.9 °F 100% 29.75 in 0.8 mi South 3.5 mph - N/A   Mist
7:05 PM 59.0 °F 57.2 °F 94% 29.79 in 1.2 mi NW 10.4 mph 26.5 mph 0.01 in Rain Light Rain
7:12 PM 57.2 °F 57.2 °F 100% 29.78 in 3.0 mi NNW 6.9 mph - 0.01 in Rain Light Rain
7:23 PM 57.2 °F 57.2 °F 100% 29.79 in 7.0 mi Calm Calm - 0.01 in Rain Light Rain
7:31 PM 57.2 °F 57.2 °F 100% 29.79 in 9.0 mi Calm Calm - 0.01 in   Overcast
7:51 PM 57.2 °F 57.2 °F 100% 29.79 in 10.0 mi NNW 4.6 mph - 0.01 in   Overcast
7:53 PM 57.9 °F 57.9 °F 100% 29.78 in 10.0 mi North 3.5 mph - 0.01 in   Overcast
8:53 PM 57.9 °F 57.0 °F 97% 29.78 in 10.0 mi Calm Calm - 0.01 in   Overcast
9:44 PM 57.2 °F 57.2 °F 100% 29.83 in 10.0 mi WNW 6.9 mph - N/A   Overcast
9:53 PM 57.9 °F 57.0 °F 97% 29.82 in 9.0 mi WNW 10.4 mph - N/A   Overcast
10:53 PM 55.9 °F 54.0 °F 93% 29.84 in 10.0 mi WNW 9.2 mph - N/A   Overcast
11:14 PM 55.4 °F 53.6 °F 94% 29.85 in 10.0 mi West 12.7 mph 20.7 mph N/A   Overcast
11:53 PM 54.0 °F 51.1 °F 90% 29.85 in 10.0 mi WNW 9.2 mph 18.4 mph N/A   Overcast